QPF
0.00 0.01 0.00 0.00 0.01 0.02 0.03 0.02 0.01 0.01 0.01 0.02 0.02 0.02 0.02 0.02 0.01 0.01 0.02 0.02 0.06 0.10 0.11 0.08 0.05 0.06 0.06 0.06 0.06 0.06 0.06 0.05 0.05 0.03 0.02 0.02 0.03 0.04 0.03 0.04 0.05 0.04 0.05
0.00 0.01 0.01 0.00 0.01 0.01 0.01 0.01 0.01 0.00 0.01 0.02 0.03 0.04 0.03 0.03 0.01 0.02 0.02 0.02 0.03 0.05 0.07 0.07 0.06 0.06 0.06 0.06 0.07 0.07 0.06 0.04 0.04 0.02 0.01 0.01 0.02 0.04 0.03 0.03 0.04 0.05 0.06
0.01 0.01 0.01 0.01 0.01 0.01 0.01 0.00 0.00 0.00 0.02 0.04 0.06 0.06 0.04 0.02 0.01 0.01 0.02 0.03 0.04 0.04 0.03 0.05 0.06 0.07 0.09 0.08 0.08 0.09 0.07 0.04 0.03 0.03 0.03 0.02 0.01 0.02 0.03 0.04 0.05 0.06 0.07
0.02 0.02 0.02 0.01 0.01 0.01 0.01 0.01 0.01 0.00 0.01 0.01 0.01 0.01 0.01 0.01 0.01 0.02 0.04 0.04 0.04 0.05 0.05 0.04 0.04 0.05 0.05 0.05 0.06 0.07 0.07 0.04 0.03 0.04 0.04 0.03 0.02 0.02 0.02 0.02 0.02 0.04 0.04
0.05 0.07 0.07 0.04 0.02 0.02 0.02 0.01 0.01 0.01 0.01 0.01 0.01 0.01 0.00 0.00 0.01 0.02 0.03 0.05 0.06 0.08 0.09 0.09 0.09 0.07 0.05 0.04 0.06 0.07 0.06 0.05 0.03 0.04 0.04 0.04 0.03 0.03 0.02 0.02 0.02 0.02 0.02
0.05 0.07 0.07 0.06 0.04 0.03 0.03 0.01 0.00 0.01 0.01 0.01 0.01 0.01 0.00 0.00 0.01 0.01 0.03 0.05 0.07 0.10 0.13 0.13 0.10 0.10 0.09 0.06 0.05 0.05 0.04 0.03 0.03 0.05 0.04 0.05 0.04 0.04 0.03 0.02 0.02 0.02 0.02
0.02 0.04 0.04 0.04 0.03 0.03 0.03 0.02 0.02 0.02 0.01 0.01 0.01 0.00 0.00 0.01 0.01 0.01 0.02 0.03 0.05 0.06 0.09 0.11 0.14 0.14 0.12 0.08 0.06 0.04 0.04 0.04 0.04 0.05 0.05 0.05 0.04 0.04 0.04 0.03 0.02 0.02 0.02
0.01 0.01 0.02 0.02 0.02 0.02 0.02 0.04 0.03 0.03 0.02 0.01 0.01 0.01 0.01 0.01 0.01 0.01 0.02 0.04 0.04 0.04 0.06 0.09 0.10 0.13 0.13 0.10 0.08 0.06 0.06 0.06 0.05 0.05 0.06 0.05 0.03 0.04 0.05 0.04 0.04 0.03 0.02
0.01 0.01 0.01 0.01 0.02 0.02 0.03 0.03 0.03 0.02 0.02 0.01 0.01 0.01 0.01 0.01 0.01 0.01 0.02 0.03 0.03 0.04 0.04 0.05 0.06 0.06 0.06 0.06 0.07 0.08 0.07 0.08 0.07 0.06 0.06 0.05 0.04 0.04 0.04 0.04 0.04 0.04 0.03
0.01 0.01 0.01 0.01 0.01 0.01 0.02 0.03 0.02 0.02 0.02 0.02 0.03 0.03 0.02 0.02 0.02 0.02 0.02 0.02 0.02 0.02 0.02 0.03 0.03 0.03 0.03 0.04 0.07 0.08 0.09 0.09 0.08 0.07 0.07 0.06 0.04 0.04 0.03 0.03 0.03 0.04 0.04
0.00 0.01 0.01 0.01 0.01 0.01 0.01 0.02 0.03 0.02 0.02 0.03 0.03 0.03 0.03 0.03 0.03 0.02 0.02 0.01 0.01 0.01 0.01 0.01 0.02 0.02 0.02 0.03 0.05 0.07 0.09 0.08 0.07 0.07 0.08 0.06 0.06 0.06 0.05 0.04 0.04 0.05 0.04
0.01 0.00 0.01 0.01 0.01 0.01 0.01 0.02 0.03 0.02 0.02 0.02 0.03 0.05 0.05 0.05 0.04 0.04 0.04 0.02 0.01 0.01 0.02 0.01 0.01 0.02 0.02 0.02 0.03 0.05 0.06 0.05 0.05 0.06 0.07 0.06 0.06 0.05 0.06 0.05 0.05 0.04 0.04
0.00 0.00 0.01 0.01 0.01 0.01 0.01 0.01 0.02 0.02 0.02 0.04 0.06 0.07 0.07 0.05 0.04 0.03 0.04 0.03 0.02 0.02 0.03 0.02 0.02 0.02 0.02 0.02 0.02 0.03 0.04 0.05 0.04 0.04 0.04 0.05 0.06 0.05 0.05 0.04 0.03 0.03 0.03
0.00 0.00 0.01 0.02 0.03 0.02 0.03 0.03 0.03 0.04 0.06 0.09 0.11 0.09 0.08 0.06 0.06 0.05 0.04 0.04 0.05 0.05 0.05 0.05 0.04 0.04 0.03 0.02 0.03 0.04 0.05 0.06 0.05 0.05 0.04 0.03 0.03 0.04 0.04 0.04 0.03 0.03 0.02
0.00 0.00 0.01 0.01 0.02 0.03 0.04 0.04 0.05 0.07 0.13 0.15 0.10 0.06 0.06 0.06 0.06 0.06 0.05 0.05 0.06 0.07 0.07 0.06 0.06 0.07 0.06 0.04 0.05 0.07 0.07 0.08 0.07 0.05 0.04 0.03 0.04 0.04 0.05 0.04 0.03 0.02 0.02
0.00 0.00 0.00 0.01 0.01 0.02 0.03 0.03 0.05 0.12 0.17 0.12 0.06 0.05 0.05 0.05 0.05 0.04 0.03 0.04 0.05 0.06 0.04 0.04 0.04 0.05 0.05 0.06 0.08 0.09 0.11 0.10 0.07 0.04 0.04 0.03 0.02 0.03 0.04 0.04 0.05 0.04 0.03
0.00 0.00 0.00 0.00 0.01 0.02 0.05 0.06 0.08 0.11 0.10 0.06 0.04 0.03 0.04 0.04 0.03 0.04 0.04 0.04 0.06 0.06 0.04 0.03 0.04 0.05 0.06 0.08 0.09 0.09 0.09 0.08 0.06 0.05 0.05 0.04 0.02 0.03 0.02 0.05 0.06 0.04 0.04
0.01 0.01 0.00 0.01 0.01 0.01 0.02 0.03 0.04 0.05 0.05 0.05 0.04 0.03 0.03 0.03 0.03 0.04 0.04 0.04 0.05 0.06 0.05 0.04 0.05 0.06 0.07 0.10 0.11 0.11 0.08 0.04 0.03 0.04 0.04 0.03 0.02 0.02 0.02 0.02 0.02 0.02 0.02
0.01 0.01 0.01 0.01 0.01 0.01 0.01 0.01 0.01 0.02 0.04 0.05 0.06 0.07 0.05 0.03 0.03 0.03 0.04 0.04 0.05 0.06 0.07 0.06 0.07 0.08 0.10 0.13 0.13 0.11 0.08 0.04 0.02 0.03 0.03 0.02 0.02 0.02 0.02 0.02 0.01 0.01 0.01
0.02 0.02 0.02 0.02 0.02 0.02 0.02 0.01 0.01 0.01 0.02 0.04 0.06 0.07 0.06 0.04 0.03 0.04 0.04 0.06 0.07 0.08 0.08 0.09 0.10 0.11 0.10 0.10 0.11 0.12 0.09 0.04 0.03 0.02 0.02 0.03 0.03 0.03 0.03 0.03 0.02 0.01 0.01
0.02 0.03 0.03 0.03 0.02 0.02 0.02 0.02 0.02 0.02 0.03 0.06 0.06 0.05 0.04 0.04 0.05 0.07 0.06 0.07 0.08 0.09 0.10 0.10 0.10 0.10 0.09 0.10 0.10 0.09 0.07 0.04 0.03 0.02 0.02 0.03 0.04 0.03 0.03 0.03 0.03 0.03 0.02
0.02 0.02 0.03 0.02 0.01 0.01 0.01 0.01 0.01 0.02 0.04 0.05 0.03 0.03 0.03 0.04 0.05 0.06 0.09 0.11 0.11 0.11 0.11 0.10 0.10 0.09 0.09 0.09 0.09 0.08 0.06 0.05 0.05 0.03 0.03 0.03 0.04 0.04 0.04 0.04 0.04 0.03 0.03
0.03 0.04 0.02 0.02 0.01 0.01 0.01 0.01 0.02 0.04 0.04 0.03 0.03 0.03 0.03 0.04 0.04 0.05 0.09 0.12 0.13 0.12 0.11 0.09 0.09 0.10 0.10 0.11 0.10 0.08 0.07 0.07 0.06 0.04 0.04 0.04 0.04 0.03 0.03 0.02 0.03 0.03 0.02
0.05 0.04 0.02 0.02 0.02 0.02 0.01 0.01 0.03 0.04 0.03 0.02 0.03 0.03 0.02 0.03 0.03 0.04 0.06 0.07 0.07 0.06 0.06 0.07 0.08 0.09 0.09 0.09 0.08 0.07 0.06 0.06 0.05 0.04 0.04 0.04 0.04 0.03 0.02 0.02 0.02 0.02 0.02
0.03 0.02 0.02 0.02 0.02 0.02 0.02 0.01 0.02 0.03 0.03 0.03 0.03 0.03 0.02 0.02 0.02 0.03 0.03 0.04 0.05 0.06 0.06 0.07 0.08 0.07 0.07 0.07 0.06 0.05 0.04 0.04 0.03 0.03 0.03 0.03 0.02 0.02 0.02 0.01 0.01 0.01 0.01
0.03 0.02 0.02 0.02 0.02 0.03 0.03 0.03 0.03 0.04 0.04 0.04 0.04 0.03 0.02 0.02 0.03 0.03 0.03 0.04 0.04 0.04 0.04 0.05 0.05 0.05 0.05 0.06 0.04 0.04 0.04 0.04 0.04 0.04 0.04 0.03 0.03 0.02 0.01 0.01 0.01 0.01 0.01
MSLP
1010.55 1010.63 1010.74 1010.86 1011.01 1011.19 1011.43 1011.72 1012.09 1012.50 1012.95 1013.39 1013.79 1014.13 1014.40 1014.60 1014.75 1014.87 1014.98 1015.11 1015.27 1015.46 1015.67 1015.90 1016.12 1016.32 1016.52 1016.69 1016.85 1016.99 1017.13 1017.24 1017.31 1017.33 1017.28 1017.15 1016.93 1016.64 1016.30 1015.93 1015.58 1015.26 1015.01
1010.42 1010.53 1010.65 1010.76 1010.86 1010.99 1011.16 1011.41 1011.75 1012.17 1012.64 1013.12 1013.56 1013.94 1014.22 1014.41 1014.51 1014.56 1014.59 1014.65 1014.74 1014.89 1015.09 1015.33 1015.57 1015.80 1016.02 1016.21 1016.37 1016.51 1016.64 1016.75 1016.84 1016.88 1016.87 1016.79 1016.62 1016.37 1016.05 1015.67 1015.28 1014.91 1014.58
1010.13 1010.29 1010.43 1010.54 1010.62 1010.70 1010.82 1011.03 1011.33 1011.75 1012.24 1012.75 1013.25 1013.66 1013.97 1014.15 1014.21 1014.20 1014.17 1014.14 1014.17 1014.27 1014.43 1014.65 1014.89 1015.13 1015.35 1015.53 1015.69 1015.82 1015.93 1016.04 1016.14 1016.22 1016.26 1016.24 1016.14 1015.96 1015.68 1015.34 1014.96 1014.56 1014.18
1009.67 1009.88 1010.06 1010.18 1010.25 1010.30 1010.37 1010.53 1010.82 1011.22 1011.73 1012.28 1012.82 1013.29 1013.63 1013.82 1013.87 1013.83 1013.73 1013.64 1013.60 1013.63 1013.74 1013.91 1014.12 1014.33 1014.52 1014.68 1014.80 1014.91 1015.00 1015.10 1015.21 1015.32 1015.41 1015.46 1015.45 1015.36 1015.17 1014.89 1014.55 1014.17 1013.79
1009.07 1009.33 1009.56 1009.70 1009.77 1009.79 1009.83 1009.95 1010.20 1010.60 1011.12 1011.70 1012.30 1012.81 1013.20 1013.43 1013.49 1013.43 1013.30 1013.16 1013.05 1013.01 1013.05 1013.16 1013.31 1013.47 1013.61 1013.72 1013.79 1013.85 1013.91 1013.98 1014.09 1014.22 1014.36 1014.48 1014.56 1014.56 1014.48 1014.30 1014.05 1013.73 1013.39
1008.43 1008.74 1009.00 1009.16 1009.23 1009.23 1009.24 1009.31 1009.53 1009.91 1010.43 1011.04 1011.68 1012.25 1012.70 1012.98 1013.08 1013.04 1012.90 1012.72 1012.57 1012.47 1012.44 1012.47 1012.55 1012.64 1012.70 1012.75 1012.76 1012.75 1012.76 1012.80 1012.89 1013.02 1013.19 1013.37 1013.53 1013.64 1013.67 1013.61 1013.46 1013.24 1012.97
1007.86 1008.20 1008.48 1008.66 1008.72 1008.70 1008.66 1008.69 1008.87 1009.21 1009.72 1010.35 1011.02 1011.65 1012.16 1012.50 1012.66 1012.66 1012.54 1012.36 1012.18 1012.04 1011.95 1011.92 1011.92 1011.93 1011.93 1011.90 1011.84 1011.77 1011.72 1011.71 1011.77 1011.89 1012.07 1012.29 1012.51 1012.70 1012.83 1012.88 1012.85 1012.75 1012.59
1007.46 1007.81 1008.11 1008.29 1008.33 1008.27 1008.19 1008.17 1008.29 1008.59 1009.07 1009.69 1010.38 1011.05 1011.62 1012.03 1012.26 1012.32 1012.25 1012.09 1011.91 1011.75 1011.63 1011.56 1011.51 1011.46 1011.39 1011.30 1011.18 1011.06 1010.95 1010.89 1010.91 1011.00 1011.17 1011.40 1011.65 1011.90 1012.10 1012.25 1012.33 1012.34 1012.30
1007.28 1007.64 1007.95 1008.11 1008.13 1008.03 1007.90 1007.82 1007.87 1008.12 1008.56 1009.16 1009.85 1010.54 1011.15 1011.62 1011.92 1012.05 1012.04 1011.94 1011.79 1011.65 1011.53 1011.44 1011.37 1011.29 1011.19 1011.07 1010.91 1010.74 1010.60 1010.50 1010.47 1010.52 1010.66 1010.87 1011.12 1011.38 1011.63 1011.84 1011.99 1012.10 1012.16
1007.34 1007.71 1008.01 1008.16 1008.15 1008.02 1007.83 1007.69 1007.69 1007.88 1008.26 1008.82 1009.49 1010.18 1010.82 1011.34 1011.69 1011.89 1011.95 1011.92 1011.83 1011.74 1011.65 1011.59 1011.53 1011.46 1011.37 1011.24 1011.08 1010.90 1010.73 1010.60 1010.54 1010.55 1010.64 1010.80 1011.02 1011.26 1011.50 1011.73 1011.93 1012.10 1012.23
1007.57 1007.97 1008.27 1008.41 1008.38 1008.22 1008.01 1007.83 1007.77 1007.91 1008.24 1008.75 1009.38 1010.05 1010.69 1011.23 1011.63 1011.88 1012.02 1012.06 1012.04 1012.02 1011.99 1011.98 1011.98 1011.95 1011.90 1011.81 1011.68 1011.52 1011.36 1011.22 1011.12 1011.09 1011.13 1011.23 1011.39 1011.57 1011.78 1011.98 1012.18 1012.37 1012.53
1007.89 1008.32 1008.64 1008.79 1008.77 1008.60 1008.38 1008.19 1008.11 1008.21 1008.50 1008.96 1009.54 1010.18 1010.80 1011.33 1011.76 1012.05 1012.24 1012.35 1012.41 1012.46 1012.52 1012.58 1012.65 1012.69 1012.71 1012.68 1012.60 1012.49 1012.35 1012.22 1012.11 1012.05 1012.03 1012.07 1012.15 1012.26 1012.40 1012.55 1012.71 1012.87 1013.04
1008.19 1008.68 1009.03 1009.21 1009.21 1009.08 1008.89 1008.71 1008.65 1008.74 1009.01 1009.44 1009.98 1010.57 1011.15 1011.67 1012.09 1012.41 1012.63 1012.79 1012.92 1013.04 1013.17 1013.32 1013.46 1013.58 1013.67 1013.71 1013.70 1013.64 1013.54 1013.43 1013.33 1013.24 1013.18 1013.16 1013.17 1013.21 1013.26 1013.34 1013.44 1013.56 1013.69
1008.40 1008.95 1009.35 1009.59 1009.65 1009.58 1009.45 1009.34 1009.32 1009.45 1009.72 1010.13 1010.64 1011.19 1011.73 1012.22 1012.62 1012.94 1013.18 1013.38 1013.55 1013.72 1013.91 1014.12 1014.32 1014.51 1014.67 1014.77 1014.82 1014.81 1014.76 1014.68 1014.58 1014.49 1014.40 1014.33 1014.28 1014.25 1014.24 1014.24 1014.27 1014.33 1014.41
1008.45 1009.07 1009.54 1009.85 1009.99 1010.01 1009.99 1009.98 1010.05 1010.23 1010.54 1010.96 1011.46 1011.98 1012.48 1012.93 1013.31 1013.61 1013.85 1014.06 1014.26 1014.47 1014.69 1014.93 1015.18 1015.41 1015.60 1015.75 1015.83 1015.87 1015.85 1015.79 1015.71 1015.62 1015.53 1015.43 1015.35 1015.27 1015.20 1015.14 1015.11 1015.11 1015.14
1008.33 1009.02 1009.57 1009.95 1010.20 1010.34 1010.44 1010.56 1010.74 1011.01 1011.39 1011.84 1012.34 1012.85 1013.32 1013.74 1014.09 1014.37 1014.61 1014.81 1015.02 1015.23 1015.47 1015.72 1015.97 1016.21 1016.42 1016.57 1016.68 1016.73 1016.73 1016.69 1016.63 1016.55 1016.46 1016.36 1016.26 1016.16 1016.06 1015.97 1015.90 1015.85 1015.84
1008.06 1008.81 1009.42 1009.90 1010.25 1010.52 1010.76 1011.02 1011.33 1011.71 1012.17 1012.67 1013.19 1013.70 1014.17 1014.57 1014.90 1015.16 1015.39 1015.59 1015.79 1016.00 1016.23 1016.46 1016.70 1016.92 1017.10 1017.25 1017.34 1017.39 1017.40 1017.37 1017.32 1017.26 1017.19 1017.10 1017.01 1016.91 1016.80 1016.69 1016.60 1016.51 1016.46
1007.64 1008.44 1009.12 1009.69 1010.15 1010.55 1010.93 1011.33 1011.77 1012.27 1012.81 1013.37 1013.93 1014.46 1014.93 1015.33 1015.66 1015.92 1016.15 1016.35 1016.54 1016.74 1016.95 1017.16 1017.36 1017.55 1017.70 1017.81 1017.88 1017.91 1017.91 1017.88 1017.85 1017.80 1017.74 1017.68 1017.60 1017.51 1017.41 1017.30 1017.19 1017.09 1017.00
1007.12 1007.96 1008.71 1009.35 1009.92 1010.45 1010.96 1011.49 1012.06 1012.66 1013.29 1013.91 1014.52 1015.07 1015.56 1015.97 1016.31 1016.59 1016.83 1017.04 1017.23 1017.43 1017.62 1017.81 1017.98 1018.13 1018.24 1018.32 1018.36 1018.37 1018.35 1018.33 1018.29 1018.26 1018.21 1018.16 1018.10 1018.02 1017.93 1017.82 1017.70 1017.58 1017.46
1006.52 1007.40 1008.20 1008.93 1009.61 1010.25 1010.89 1011.54 1012.21 1012.90 1013.60 1014.28 1014.92 1015.51 1016.02 1016.46 1016.83 1017.13 1017.39 1017.63 1017.84 1018.05 1018.24 1018.42 1018.57 1018.69 1018.78 1018.82 1018.84 1018.83 1018.81 1018.77 1018.74 1018.70 1018.66 1018.62 1018.56 1018.48 1018.37 1018.25 1018.11 1017.96 1017.80
1005.86 1006.79 1007.66 1008.47 1009.25 1010.00 1010.75 1011.50 1012.26 1013.02 1013.78 1014.50 1015.18 1015.79 1016.33 1016.80 1017.19 1017.53 1017.83 1018.10 1018.34 1018.57 1018.78 1018.96 1019.11 1019.23 1019.30 1019.34 1019.35 1019.33 1019.29 1019.25 1019.21 1019.16 1019.11 1019.05 1018.97 1018.87 1018.74 1018.59 1018.41 1018.22 1018.02
1005.19 1006.17 1007.11 1008.02 1008.89 1009.75 1010.59 1011.43 1012.26 1013.08 1013.88 1014.63 1015.32 1015.95 1016.51 1017.00 1017.42 1017.80 1018.13 1018.44 1018.72 1018.98 1019.21 1019.42 1019.59 1019.71 1019.80 1019.84 1019.85 1019.83 1019.80 1019.74 1019.69 1019.62 1019.54 1019.44 1019.32 1019.18 1019.01 1018.81 1018.59 1018.35 1018.10
1004.55 1005.59 1006.61 1007.61 1008.59 1009.54 1010.47 1011.38 1012.27 1013.13 1013.94 1014.70 1015.40 1016.04 1016.61 1017.11 1017.55 1017.96 1018.32 1018.66 1018.98 1019.27 1019.54 1019.77 1019.96 1020.11 1020.22 1020.28 1020.30 1020.29 1020.25 1020.19 1020.11 1020.01 1019.89 1019.74 1019.57 1019.37 1019.14 1018.89 1018.61 1018.33 1018.03
1003.99 1005.09 1006.19 1007.29 1008.36 1009.40 1010.41 1011.38 1012.31 1013.19 1014.02 1014.78 1015.47 1016.10 1016.67 1017.17 1017.62 1018.04 1018.43 1018.79 1019.13 1019.44 1019.74 1019.99 1020.21 1020.39 1020.52 1020.60 1020.64 1020.63 1020.59 1020.51 1020.40 1020.26 1020.10 1019.90 1019.67 1019.41 1019.12 1018.82 1018.50 1018.18 1017.85
1003.55 1004.71 1005.89 1007.07 1008.22 1009.34 1010.41 1011.44 1012.39 1013.29 1014.11 1014.87 1015.55 1016.17 1016.72 1017.22 1017.67 1018.09 1018.48 1018.85 1019.19 1019.52 1019.83 1020.10 1020.33 1020.52 1020.67 1020.76 1020.80 1020.80 1020.75 1020.65 1020.52 1020.34 1020.13 1019.88 1019.60 1019.30 1018.98 1018.64 1018.31 1017.97 1017.64
1003.26 1004.47 1005.71 1006.95 1008.17 1009.34 1010.46 1011.52 1012.50 1013.40 1014.22 1014.97 1015.64 1016.24 1016.78 1017.27 1017.71 1018.12 1018.51 1018.87 1019.21 1019.53 1019.83 1020.09 1020.32 1020.51 1020.66 1020.75 1020.79 1020.78 1020.71 1020.60 1020.44 1020.23 1019.98 1019.71 1019.41 1019.09 1018.76 1018.43 1018.10 1017.79 1017.48
Thickness
5799 5799 5799 5798 5795 5792 5789 5787 5785 5783 5781 5778 5776 5773 5772 5772 5771 5771 5770 5769 5767 5766 5765 5763 5761 5760 5757 5756 5754 5752 5750 5748 5747 5745 5743 5745 5746 5746 5746 5746 5745 5745 5744
5797 5798 5798 5797 5795 5792 5790 5788 5786 5784 5782 5780 5778 5776 5774 5773 5773 5772 5770 5769 5767 5766 5765 5762 5760 5759 5756 5754 5753 5751 5748 5747 5746 5742 5738 5735 5738 5741 5744 5744 5743 5743 5742
5797 5797 5796 5796 5795 5793 5792 5791 5787 5786 5784 5782 5779 5777 5774 5772 5770 5770 5769 5768 5767 5765 5764 5762 5760 5758 5756 5754 5752 5750 5747 5743 5743 5742 5737 5731 5729 5733 5738 5740 5740 5740 5739
5802 5799 5798 5796 5796 5796 5795 5792 5789 5787 5785 5783 5779 5775 5771 5768 5768 5768 5768 5767 5766 5764 5763 5761 5759 5758 5755 5754 5752 5750 5748 5744 5741 5740 5739 5737 5735 5729 5729 5734 5736 5736 5736
5805 5802 5801 5800 5800 5798 5795 5792 5789 5787 5785 5783 5780 5776 5772 5770 5768 5767 5766 5765 5764 5763 5762 5760 5758 5756 5754 5753 5751 5749 5747 5745 5742 5739 5737 5735 5733 5731 5727 5725 5729 5731 5733
5808 5806 5804 5802 5800 5799 5796 5793 5789 5786 5785 5782 5779 5776 5772 5770 5767 5765 5763 5762 5762 5762 5761 5759 5758 5756 5754 5752 5750 5748 5746 5744 5741 5738 5736 5734 5732 5729 5726 5724 5724 5725 5728
5808 5805 5803 5801 5799 5797 5795 5792 5789 5785 5784 5782 5779 5776 5774 5771 5767 5765 5763 5761 5760 5759 5759 5759 5757 5755 5754 5752 5750 5747 5744 5742 5739 5737 5735 5733 5733 5731 5727 5724 5722 5721 5723
5808 5806 5805 5803 5801 5798 5796 5792 5788 5785 5784 5781 5779 5777 5774 5771 5769 5767 5765 5762 5760 5759 5759 5757 5756 5754 5753 5751 5748 5746 5743 5741 5738 5736 5734 5731 5731 5729 5727 5724 5720 5717 5717
5809 5807 5806 5804 5802 5799 5796 5793 5789 5785 5783 5781 5778 5776 5774 5771 5769 5767 5765 5763 5761 5759 5758 5756 5754 5752 5751 5748 5746 5744 5741 5738 5736 5734 5732 5729 5728 5727 5726 5723 5721 5716 5712
5808 5807 5806 5804 5802 5801 5797 5793 5790 5786 5783 5780 5778 5776 5773 5771 5769 5767 5764 5762 5760 5758 5756 5754 5752 5750 5748 5746 5744 5741 5739 5736 5733 5731 5729 5727 5726 5725 5723 5720 5718 5716 5712
5806 5806 5805 5804 5802 5799 5795 5791 5787 5783 5779 5777 5775 5773 5771 5770 5768 5765 5763 5761 5759 5757 5755 5753 5750 5748 5746 5744 5741 5739 5737 5734 5731 5729 5727 5725 5723 5722 5720 5718 5716 5713 5710
5807 5806 5804 5801 5798 5795 5792 5789 5786 5782 5779 5777 5773 5771 5769 5767 5765 5763 5761 5760 5758 5756 5754 5751 5748 5746 5744 5742 5739 5736 5734 5732 5729 5727 5725 5723 5722 5719 5718 5715 5713 5711 5709
5803 5801 5799 5797 5794 5792 5789 5786 5784 5782 5779 5775 5771 5768 5766 5764 5762 5761 5759 5758 5756 5754 5751 5749 5746 5744 5742 5740 5738 5735 5732 5730 5728 5725 5722 5720 5718 5716 5714 5712 5710 5708 5706
5798 5796 5794 5792 5790 5788 5786 5784 5782 5780 5777 5774 5770 5766 5765 5763 5760 5758 5756 5754 5753 5750 5748 5746 5744 5742 5740 5738 5735 5733 5730 5727 5725 5722 5719 5717 5716 5714 5711 5709 5706 5704 5701
5792 5792 5790 5788 5786 5785 5783 5781 5780 5778 5775 5771 5769 5767 5764 5762 5759 5756 5753 5751 5749 5748 5745 5743 5740 5738 5736 5734 5732 5730 5727 5724 5721 5719 5717 5715 5713 5711 5709 5706 5703 5700 5697
5788 5788 5787 5785 5783 5782 5780 5778 5776 5774 5772 5768 5765 5763 5761 5759 5756 5753 5750 5747 5746 5744 5741 5739 5737 5734 5733 5731 5729 5727 5723 5720 5717 5714 5712 5711 5709 5707 5705 5703 5700 5698 5694
5784 5783 5783 5782 5781 5780 5778 5774 5772 5770 5767 5764 5762 5760 5757 5754 5751 5749 5747 5744 5742 5740 5737 5736 5733 5731 5729 5727 5724 5722 5718 5715 5712 5709 5707 5706 5705 5702 5699 5697 5695 5693 5691
5782 5781 5780 5780 5780 5778 5776 5772 5770 5766 5763 5760 5758 5755 5752 5749 5746 5743 5742 5740 5737 5735 5733 5731 5728 5725 5723 5721 5719 5715 5712 5709 5706 5703 5701 5699 5698 5696 5693 5691 5689 5687 5686
5779 5779 5779 5778 5776 5774 5772 5768 5764 5762 5758 5755 5752 5750 5747 5743 5741 5738 5735 5733 5731 5728 5726 5724 5721 5718 5717 5715 5712 5709 5704 5701 5699 5697 5695 5693 5691 5689 5687 5685 5682 5681 5680
5775 5774 5774 5772 5770 5768 5766 5762 5758 5755 5752 5751 5748 5746 5742 5738 5735 5733 5730 5727 5725 5722 5720 5717 5714 5712 5710 5709 5707 5703 5699 5695 5692 5690 5689 5687 5685 5683 5680 5678 5675 5673 5672
5769 5769 5768 5765 5764 5763 5760 5755 5753 5750 5750 5747 5744 5740 5737 5733 5729 5726 5723 5720 5718 5715 5712 5709 5707 5705 5704 5702 5699 5696 5693 5690 5687 5684 5682 5681 5678 5676 5673 5671 5669 5667 5665
5761 5762 5760 5758 5757 5756 5753 5749 5747 5747 5744 5741 5738 5735 5731 5727 5723 5719 5716 5712 5709 5706 5704 5701 5699 5698 5697 5695 5692 5689 5686 5684 5682 5679 5677 5675 5672 5670 5668 5665 5662 5660 5658
5751 5753 5752 5750 5749 5748 5746 5742 5741 5740 5737 5733 5729 5727 5723 5720 5717 5713 5709 5705 5702 5699 5696 5693 5691 5690 5689 5687 5684 5681 5679 5676 5674 5673 5671 5668 5665 5662 5660 5658 5655 5653 5651
5742 5742 5741 5740 5738 5738 5737 5736 5734 5731 5728 5724 5721 5719 5715 5712 5709 5705 5702 5699 5695 5692 5689 5686 5684 5682 5680 5678 5677 5674 5671 5668 5666 5664 5661 5659 5656 5654 5652 5650 5648 5646 5644
5733 5733 5732 5729 5729 5729 5728 5728 5726 5723 5719 5716 5713 5710 5707 5704 5701 5697 5693 5691 5689 5687 5684 5681 5678 5675 5673 5672 5669 5665 5663 5661 5658 5655 5652 5650 5648 5646 5644 5642 5640 5638 5635
5724 5724 5724 5723 5722 5722 5720 5719 5718 5715 5711 5707 5704 5702 5699 5695 5691 5688 5684 5682 5680 5679 5677 5674 5670 5669 5666 5663 5660 5657 5655 5652 5649 5646 5644 5642 5640 5638 5636 5634 5631 5629 5627